Location: Mat�lon
(46.2791°N, 7.1028°E)
Time: 06:19:00
(UTC+00:00)

Cosmos 2263 Rocket - Pass Details

Date: 18 September 2020
Orbit: 822 x 849 km, 71.0° (Epoch: 23 October)

Event Time Altitude Azimuth Distance (km) Brightness Sun altitude
Rises 19:31:33 0° 236° (SW) 3,349 5.7 -20.1°
Reaches altitude 10° 19:34:14 10° 246° (WSW) 2,422 5.1 -20.5°
Maximum altitude 19:39:09 32° 309° (NW) 1,399 4.0 -21.2°
Drops below altitude 10° 19:44:08 10° 11° (NNE) 2,447 4.8 -22.0°
Sets 19:46:52 0° 22° (NNE) 3,389 5.4 -22.4°
